Regional Weather Roundup
Issued by NWS Little Rock, AR

Home | Current Version | Previous Version | Graphics & Text | Print | Product List | Glossary On
Versions: 1 2 3 4 5 6 7 8 9 10 11 12 13 14 15 16 17 18 19 20 21 22 23 24 25 26 27 28 29 30 31 32 33 34 35 36 37 38 39 40 41 42 43 44 45 46 47 48 49 50
000
ASUS44 KLZK 011005
RWRLZK

WEATHER ROUNDUP FOR ARKANSAS
NATIONAL WEATHER SERVICE LITTLE ROCK AR
500 AM CDT MON SEP 01 2014

NOTE: "FAIR" INDICATES FEW OR NO CLOUDS BELOW 12,000 FEET WITH NO
SIGNIFICANT WEATHER AND/OR OBSTRUCTIONS TO VISIBILITY.

ARZ001-003-010-029-011100-
NORTHWEST ARKANSAS

CITY           SKY/WX    TMP DP  RH WIND       PRES   REMARKS
FAYETTEVILLE   CLEAR     74  69  85 S9G18     29.91R
FORT SMITH     CLEAR     78  69  73 S7        29.88R
HARRISON       CLOUDY    75  69  81 SW3       29.95R
BENTONVILLE    MOCLDY    75  70  83 NW5       29.98R
ROGERS         CLOUDY    75  69  81 SW10      29.98R
HIGHFILL       MOCLDY    76  69  79 W7        29.97R
$$

ARZ004-005-016-011100-
NORTH CENTRAL ARKANSAS

CITY           SKY/WX    TMP DP  RH WIND       PRES   REMARKS
BATESVILLE     CLOUDY    75  72  88 S3        29.93S
FLIPPIN        CLOUDY    75  66  73 CALM      29.94R
MTN HOME       CLOUDY    73  70  90 CALM      29.94R
$$

ARZ040-041-011100-
WEST CENTRAL ARKANSAS

CITY           SKY/WX    TMP DP  RH WIND       PRES   REMARKS
MENA           MOCLDY    77  72  83 CALM      29.96R
MOUNT IDA      MOCLDY    77  70  79 VRB3      29.94R
$$

ARZ009-017-025-026-028-011100-
NORTHEAST ARKANSAS

CITY           SKY/WX    TMP DP  RH WIND       PRES   REMARKS
CORNING          N/A     73  73 100 S9        29.96R
JONESBORO      PTCLDY    76  73  91 S10       29.95F
NEWPORT        CLEAR     74  73  96 S10       29.95F
WALNUT RIDGE   CLEAR     73  66  78 S8        29.95R
BLYTHEVILLE    CLEAR     77  75  93 S10       29.97F
$$

ARZ022-023-033-042-044-011100-
CENTRAL ARKANSAS

CITY           SKY/WX    TMP DP  RH WIND       PRES   REMARKS
LITTLE ROCK    PTCLDY    75  70  84 S9        29.95F
N LITTLE ROCK    N/A     74  73  95 SW8       29.95F
JACKSONVILLE   CLEAR     75  72  90 S10       29.95S
SEARCY         CLEAR     73  72  97 MISG      29.96S
HOT SPRINGS    CLOUDY    77  72  84 SW8G20    29.96F
RUSSELLVILLE   PTCLDY    73  69  87 CALM      29.93R
CLINTON        FAIR      73  72  94 SE5       29.93S
$$

ARZ036-011100-
EAST ARKANSAS

CITY           SKY/WX    TMP DP  RH WIND       PRES   REMARKS
WEST MEMPHIS   MOCLDY    75  75 100 S8        29.98S
$$

ARZ050-053-066-070-073-011100-
SOUTHWEST ARKANSAS

CITY           SKY/WX    TMP DP  RH WIND       PRES   REMARKS
ARKADELPHIA    FAIR      73  73 100 CALM      29.97S
CAMDEN         CLEAR     72  70  94 S5        29.97F
TEXARKANA      CLOUDY    76  74  93 S15G21    29.96F
EL DORADO      CLEAR     72  71  97 CALM      29.99S
DE QUEEN       MOCLDY    74  72  93 CALM      29.93S
$$

ARZ056-057-069-011100-
SOUTHEAST ARKANSAS

CITY           SKY/WX    TMP DP  RH WIND       PRES   REMARKS
PINE BLUFF     PTCLDY    73  69  87 S8        29.98F
STUTTGART      PTCLDY    75  70  83 S10       29.99S
MONTICELLO     CLEAR     75  71  87 S7        30.00S

$$




USA.gov is the U.S. government's official web portal to all federal, state and local government web resources and services.